Вернуться в каталог

DUBAISAT 1

АктивенНаукаSSO
NORAD 35682·PAYLOAD·🇦🇪 UAE

Запущен Jul 29, 2009 с Baikonur Cosmodrome

Loading…

Ближайшие Пролёты (ближайшие 24 часа)

TLE

СвежийSource: Space-Track

Эпоха: Sep 13, 2026, 22:40 UTC

1 35682U 09041B   26256.94498807  .00000672  00000-0  10682-3 0  9993
2 35682  98.0176  29.2981 0011202 140.6087 219.5939 14.75249544918180

Отслеживайте DUBAISAT 1 в реальном времени с AllMySat

Download on the App Store